Regional Weather Roundup
Issued by NWS

Home | Current Version | Previous Version | Text Only | Print | Product List | Glossary Off
Versions: 1 2 3 4 5 6 7 8 9 10 11 12 13 14 15 16 17 18 19 20 21 22 23 24 25 26 27 28 29 30 31 32 33 34 35 36 37 38 39 40 41 42 43 44 45 46 47 48 49 50

000
ASUS45 KPSR 310310
RWRAZ

ARIZONA HOURLY REGIONAL WEATHER ROUNDUP
NATIONAL WEATHER SERVICE PHOENIX AZ
800 PM MST MON MAY 30 2016

NOTE: FAIR INDICATES FEW OR NO CLOUDS BELOW 12,000 FEET WITH NO
SIGNIFICANT WEATHER AND/OR OBSTRUCTIONS TO VISIBILITY.

AZZ001>003-036-310400-
NORTHWEST ARIZONA

CITY           SKY/WX    TMP DP  RH WIND       PRES   REMARKS
KINGMAN        PTCLDY    73  24  16 E6        29.91S
$$

AZZ004>008-015-016-018-310400-
NORTH CENTRAL ARIZONA

CITY           SKY/WX    TMP DP  RH WIND       PRES   REMARKS
GRAND CANYON   PTCLDY    54  31  41 CALM      30.11S
WILLIAMS       MOCLDY    61  27  27 NE5       30.18S
PRESCOTT       PTCLDY    71  26  18 N6        30.00S
FLAGSTAFF      MOCLDY    59  26  28 VRB3      30.13R
PAYSON         CLEAR     68   9  10 CALM      30.04R
PAGE           MOCLDY    76  28  17 CALM      29.93S
$$

AZZ009>014-017-310400-
NORTHEAST ARIZONA

CITY           SKY/WX    TMP DP  RH WIND       PRES   REMARKS
WINSLOW        PTCLDY    74  20  13 NW12      29.96R
SAINT JOHNS    PTCLDY    66  24  20 N9        30.00R
WINDOW ROCK    PTCLDY    63  21  20 S5        30.06R
SHOW LOW       CLEAR     59  14  17 W9        30.08R
$$

AZZ023-310400-
GREATER PHOENIX AREA

CITY           SKY/WX    TMP DP  RH WIND       PRES   REMARKS
PHOENIX        PTCLDY    89  20   8 NW9       29.75S
BUCKEYE        CLEAR     82  34  17 SE5       29.78R
GLENDALE       PTCLDY    90  14   6 SW3       29.77
LUKE AFB       CLEAR     88  20   8 S7        29.75S
DEER VALLEY    CLEAR     85  16   7 SW3       29.78S
SCOTTSDALE     CLEAR     86  18   8 W3        29.80R
MESA-FALCON    PTCLDY   N/A N/A N/A W8        29.76S
MESA-GATEWAY   CLEAR     84  21  10 W6        29.78S
CHANDLER       PTCLDY    88  18   7 VRB6      29.77S
$$

AZZ027-028-310400-
SOUTHWEST MARICOPA COUNTY AND PINAL COUNTY

CITY           SKY/WX    TMP DP  RH WIND       PRES   REMARKS
CASA GRANDE    CLEAR     84  27  12 W6        29.80R
GILA BEND      FAIR      86  18   8 S6        29.75S
$$

AZZ503-504-507>509-310400-
SOUTHEAST ARIZONA

CITY           SKY/WX    TMP DP  RH WIND       PRES   REMARKS
TUCSON         CLEAR     85  11   6 W8        29.86R
DAVIS-MONTHAN  CLEAR     84  10   6 NW10      29.84R
RYAN FIELD     CLEAR     82  14   7 W8        29.85R
NOGALES        CLEAR     76  22  13 SW7       29.93R
SIERRA VISTA   CLEAR     75  19  12 SW9       29.99R
DOUGLAS        CLEAR     77  33  20 W14       29.94R
SAFFORD        CLEAR     84  23  10 NW17      29.83R
$$

AZZ020-021-025-026-031-310400-
SOUTHWEST ARIZONA

CITY           SKY/WX    TMP DP  RH WIND       PRES   REMARKS
YUMA           CLEAR     89  40  17 SW7       29.74S
$$

CAZ031-033-041-043-047-048-061-310400-
SOUTHERN CALIFORNIA

CITY           SKY/WX    TMP DP  RH WIND       PRES   REMARKS
DOWNTOWN L.A.  CLEAR     63  55  75 VRB3      29.91S
L.A. AIRPORT   PTCLDY    61  55  81 W12       29.92S
SAN DIEGO      PTCLDY    66  55  68 NW10      29.93S
BURBANK        CLEAR     64  53  67 S7        29.90R
ONTARIO        PTCLDY    69  54  58 SW9       29.90R
RIVERSIDE      PTCLDY    70  54  56 W9        29.89S
PALM SPRINGS   CLEAR     91  48  22 NW14      29.75S
EL CENTRO NAS  PTCLDY    88  37  16 SE7       29.73S
IMPERIAL       PTCLDY    92  35  13 S5        29.71S
BLYTHE         PTCLDY    93  31  11 S6        29.72F
NEEDLES        MOCLDY    95  24   8 S6        29.72S
$$

NVZ020-UTZ003-310400-
SOUTHERN NEVADA-UTAH

CITY           SKY/WX    TMP DP  RH WIND       PRES   REMARKS
LAS VEGAS      MOCLDY    91  28  10 E3        29.76S
SALT LAKE CITY MOCLDY    74  34  23 W7        30.02S
$$

NMZ009-TXZ055-310400-
NEW MEXICO-WEST TEXAS

CITY           SKY/WX    TMP DP  RH WIND       PRES   REMARKS
ALBUQUERQUE    MOCLDY    75  31  19 S6        29.97R
EL PASO        MOCLDY    75  51  43 SE5       29.95R
$$


........................KEY........................
SKY/WX - SKY CONDITION/WEATHER
TMP    - TEMPERATURE IN FAHRENHEIT
DP     - DEW POINT IN FAHRENHEIT
RH     - RELATIVE HUMIDITY IN PERCENT
WIND   - DIRECTION AND SPEED IN MILES PER HOUR (MPH)
VRB    - VARIABLE WIND DIRECTION
PRES   - MEAN SEA LEVEL PRESSURE IN INCHES OF MERCURY
         F - FALLING PRESSURE   R - RISING PRESSURE
         S - STEADY PRESSURE
VSB    - VISIBILITY IN MILES
HX     - HEAT INDEX IN FAHRENHEIT
WCI    - WIND CHILL INDEX IN FAHRENHEIT
TC     - TEMPERATURE IN CELSIUS WHICH IS ALSO KNOWN AS
         TEMPERATURE IN CENTIGRADE
AFB    - AIR FORCE BASE
         LUKE AFB IS LUKE AIR FORCE BASE
         DAVIS-MONTHAN IS DAVIS-MONTHAN AIR FORCE BASE
NAS    - NAVAL AIR STATION
         EL CENTRO NAS IS EL CENTRO NAVAL AIR STATION
N/A    - NOT AVAILABLE




USA.gov is the U.S. government's official web portal to all federal, state and local government web resources and services.